Weather History for Mammoth, CA

Change the Weather History Date:

Thursday, December 12, 2013

  Actual Average Record
Temperature  
Mean Temperature 25 °F -  
Max Temperature 50 °F 40 °F 57 °F (2010)
Min Temperature 0 °F 24 °F -7 °F (1997)
Degree Days  
Heating Degree Days 40    
Moisture  
Dew Point 8 °F    
Average Humidity 58    
Maximum Humidity 92    
Minimum Humidity 16    
Precipitation  
Precipitation 0.00 in - - ()
Sea Level Pressure  
Sea Level Pressure 30.26 in    
Wind  
Wind Speed 3 mph (ESE)    
Max Wind Speed 9 mph    
Max Gust Speed -    
Visibility 10 miles    
Events      
Averages and records for this station are not official NWS values.
T = Trace of Precipitation, MM = Missing Value Source: NWS Daily Summary

Daily Weather History Graph

Daily Weather History Graph

Search for Another Location

Airport:

Trip Planner

Search our weather history database for the weather conditions in past years. The results will help you decide how hot, cold, wet, or windy it might be!

Date:

Astronomy

Dec. 12, 2013 Rise Set
Actual Time 7:01 AM PST 4:37 PM PST
Civil Twilight 6:31 AM PST 5:06 PM PST
Nautical Twilight 5:59 AM PST 5:39 PM PST
Astronomical Twilight 5:27 AM PST 6:11 PM PST
Moon 1:43 PM PST (12/12) 2:32 AM PST (12/12)
Length of Visible Light 10h 34m
Length of Day
9h 36m
Waxing Gibbous, 81% of the Moon is Illuminated
Dec 12
Waxing Gibbous
Dec 17
Full
Dec 25
Last Quarter
Jan 1
New
Jan 7
First Quarter

Hourly Weather History & Observations

Time (PST) Temp. Windchill Dew Point Humidity Pressure Visibility Wind Dir Wind Speed Gust Speed Precip Events Conditions
12:15 AM 14.0 °F 8.2 °F 8.6 °F 79% 30.33 in 10.0 mi NW 3.5 mph - N/A   Clear
12:35 AM 10.4 °F 4.0 °F 6.8 °F 85% 30.33 in 10.0 mi NW 3.5 mph - N/A   Clear
12:55 AM 12.2 °F - 6.8 °F 79% 30.33 in 10.0 mi Calm Calm - N/A   Clear
1:15 AM 12.2 °F 4.3 °F 6.8 °F 79% 30.33 in 10.0 mi NNW 4.6 mph - N/A   Clear
1:35 AM 12.2 °F - 6.8 °F 79% 30.33 in 10.0 mi Calm Calm - N/A   Clear
1:55 AM 12.2 °F 4.3 °F 5.0 °F 73% 30.33 in 10.0 mi NW 4.6 mph - N/A   Clear
2:15 AM 10.4 °F - 5.0 °F 79% 30.33 in 10.0 mi Calm Calm - N/A   Clear
2:35 AM 8.6 °F 2.0 °F 3.2 °F 79% 30.32 in 10.0 mi NW 3.5 mph - N/A   Clear
2:55 AM 8.6 °F - 5.0 °F 85% 30.32 in 10.0 mi Calm Calm - N/A   Clear
3:15 AM 10.4 °F - 5.0 °F 79% 30.32 in 10.0 mi Calm Calm - N/A   Clear
3:35 AM 12.2 °F 4.3 °F 5.0 °F 73% 30.31 in 10.0 mi NNW 4.6 mph - N/A   Clear
3:55 AM 10.4 °F - 6.8 °F 85% 30.31 in 10.0 mi Calm Calm - N/A   Clear
4:15 AM 10.4 °F - 5.0 °F 79% 30.31 in 10.0 mi Calm Calm - N/A   Clear
4:35 AM 8.6 °F - 3.2 °F 79% 30.30 in 10.0 mi Calm Calm - N/A   Clear
4:55 AM 3.2 °F -6.2 °F -0.4 °F 85% 30.30 in 10.0 mi NW 4.6 mph - N/A   Clear
5:15 AM 1.4 °F -6.2 °F -0.4 °F 92% 30.29 in 10.0 mi WNW 3.5 mph - N/A   Clear
5:35 AM 1.4 °F - -2.2 °F 85% 30.29 in 10.0 mi Calm Calm - N/A   Clear
5:55 AM 5.0 °F - -0.4 °F 78% 30.29 in 10.0 mi Calm Calm - N/A   Clear
6:15 AM 8.6 °F - 3.2 °F 79% 30.30 in 10.0 mi Calm Calm - N/A   Clear
6:35 AM 1.4 °F - -2.2 °F 85% 30.31 in 10.0 mi Calm Calm - N/A   Clear
6:55 AM -0.4 °F -8.3 °F -2.2 °F 92% 30.31 in 10.0 mi North 3.5 mph - N/A   Clear
7:15 AM 5.0 °F - 3.2 °F 92% 30.30 in 10.0 mi Calm Calm - N/A   Clear
7:35 AM 8.6 °F - 5.0 °F 85% 30.31 in 10.0 mi Calm Calm - N/A   Clear
7:55 AM 8.6 °F - 5.0 °F 85% 30.31 in 10.0 mi Calm Calm - N/A   Clear
8:15 AM 17.6 °F - 8.6 °F 68% 30.31 in 10.0 mi North - - N/A   Clear
8:35 AM 19.4 °F - 10.4 °F 68% 30.31 in 10.0 mi Calm Calm - N/A   Clear
8:55 AM 19.4 °F - 10.4 °F 68% 30.31 in 10.0 mi Calm Calm - N/A   Clear
9:15 AM 23.0 °F - 10.4 °F 59% 30.31 in 10.0 mi Calm Calm - N/A   Clear
9:35 AM 26.6 °F - 10.4 °F 51% 30.31 in 10.0 mi Calm Calm - N/A   Clear
9:55 AM 28.4 °F 23.3 °F 14.0 °F 55% 30.31 in 10.0 mi SE 4.6 mph - N/A   Clear
10:15 AM 30.2 °F 24.3 °F 14.0 °F 51% 30.31 in 10.0 mi SE 5.8 mph - N/A   Clear
10:35 AM 32.0 °F 27.5 °F 14.0 °F 48% 30.30 in 10.0 mi SE 4.6 mph - N/A   Clear
10:55 AM 35.6 °F 30.7 °F 14.0 °F 41% 30.29 in 10.0 mi SE 5.8 mph - N/A   Clear
11:15 AM 37.4 °F - 12.2 °F 36% 30.28 in 10.0 mi Calm Calm - N/A   Clear
11:35 AM 41.0 °F 36.4 °F 12.2 °F 31% 30.26 in 10.0 mi SE 6.9 mph - N/A   Clear
11:55 AM 42.8 °F 38.6 °F 12.2 °F 29% 30.25 in 10.0 mi SSE 6.9 mph - N/A   Clear
12:15 PM 44.6 °F 42.2 °F 12.2 °F 27% 30.24 in 10.0 mi SE 4.6 mph - N/A   Clear
12:35 PM 46.4 °F 44.3 °F 12.2 °F 25% 30.23 in 10.0 mi SSE 4.6 mph - N/A   Clear
12:55 PM 48.2 °F - 10.4 °F 22% 30.22 in 10.0 mi SE 5.8 mph - N/A   Clear
1:15 PM 48.2 °F - 6.8 °F 19% 30.21 in 10.0 mi SE 5.8 mph - N/A   Clear
1:35 PM 50.0 °F - 5.0 °F 16% 30.20 in 10.0 mi ESE 4.6 mph - N/A   Clear
1:55 PM 50.0 °F - 8.6 °F 19% 30.19 in 10.0 mi ESE 5.8 mph - N/A   Clear
2:15 PM 50.0 °F - 6.8 °F 17% 30.19 in 10.0 mi ESE 6.9 mph - N/A   Clear
2:35 PM 50.0 °F - 5.0 °F 16% 30.18 in 10.0 mi ESE 6.9 mph - N/A   Clear
2:55 PM 50.0 °F - 5.0 °F 16% 30.19 in 10.0 mi ESE 4.6 mph - N/A   Clear
3:15 PM 50.0 °F - 5.0 °F 16% 30.19 in 10.0 mi SE 4.6 mph - N/A   Clear
3:35 PM 48.2 °F - 8.6 °F 20% 30.19 in 10.0 mi SE 5.8 mph - N/A   Clear
3:55 PM 42.8 °F 39.3 °F 10.4 °F 27% 30.19 in 10.0 mi East 5.8 mph - N/A   Clear
4:15 PM 41.0 °F 36.4 °F 10.4 °F 29% 30.19 in 10.0 mi ESE 6.9 mph - N/A   Clear
4:35 PM 41.0 °F 35.2 °F 8.6 °F 26% 30.19 in 10.0 mi ESE 9.2 mph - N/A   Clear
4:55 PM 37.4 °F 32.1 °F 8.6 °F 30% 30.19 in 10.0 mi ESE 6.9 mph - N/A   Clear
5:15 PM 35.6 °F 30.7 °F 10.4 °F 35% 30.20 in 10.0 mi SSE 5.8 mph - N/A   Clear
5:35 PM 33.8 °F - 10.4 °F 38% 30.20 in 10.0 mi Calm Calm - N/A   Clear
5:55 PM 33.8 °F - 8.6 °F 35% 30.21 in 10.0 mi Calm Calm - N/A   Clear
6:15 PM 30.2 °F - 10.4 °F 44% 30.21 in 10.0 mi Calm Calm - N/A   Clear
6:35 PM 28.4 °F - 10.4 °F 47% 30.21 in 10.0 mi Calm Calm - N/A   Clear
6:55 PM 24.8 °F - 12.2 °F 59% 30.22 in 10.0 mi Calm Calm - N/A   Clear
7:15 PM 26.6 °F - 12.2 °F 55% 30.21 in 10.0 mi Calm Calm - N/A   Clear
7:35 PM 23.0 °F - 10.4 °F 59% 30.23 in 10.0 mi North - - N/A   Clear
7:55 PM 21.2 °F 16.4 °F 12.2 °F 68% 30.23 in 10.0 mi North 3.5 mph - N/A   Clear
8:15 PM 23.0 °F 18.4 °F 12.2 °F 63% 30.23 in 10.0 mi SSW 3.5 mph - N/A   Clear
8:35 PM 21.2 °F - 12.2 °F 68% 30.23 in 10.0 mi North - - N/A   Clear
8:55 PM 19.4 °F 14.3 °F 10.4 °F 68% 30.23 in 10.0 mi NNW 3.5 mph - N/A   Clear
9:15 PM 21.2 °F - 10.4 °F 63% 30.21 in 10.0 mi North - - N/A   Clear
9:35 PM 15.8 °F 10.2 °F 10.4 °F 79% 30.21 in 10.0 mi NNW 3.5 mph - N/A   Clear
9:55 PM 15.8 °F - 8.6 °F 73% 30.21 in 10.0 mi Calm Calm - N/A   Clear
10:15 PM 14.0 °F 8.2 °F 8.6 °F 79% 30.21 in 10.0 mi NE 3.5 mph - N/A   Clear
10:35 PM 19.4 °F 11.5 °F 10.4 °F 68% 30.21 in 10.0 mi NW 5.8 mph - N/A   Clear
10:55 PM 15.8 °F 10.2 °F 10.4 °F 79% 30.21 in 10.0 mi NE 3.5 mph - N/A   Clear
11:15 PM 17.6 °F - 8.6 °F 68% 30.21 in 10.0 mi Calm Calm - N/A   Clear
11:35 PM 17.6 °F - 10.4 °F 73% 30.20 in 10.0 mi North - - N/A   Clear
11:55 PM 17.6 °F - 10.4 °F 73% 30.21 in 10.0 mi Calm Calm - N/A   Clear